Location: Foligno
(42.9600°N, 12.7050°E)
Time: 10:36:19
(UTC+02:00)

Envisat - Visible Passes

Search period start: 18 October 2019 00:00
Search period end: 27 October 2019 23:00
Orbit: 764 x 766 km, 98.1° (Epoch: 18 October)

Date Brightness Start Highest point End Pass type
(mag) Time Alt. Az. Time Alt. Az. Time Alt. Az.
18 Oct 2.9 19:04:49 10° SSE 19:09:53 78° ENE 19:14:59 10° N visible
18 Oct 6.1 20:47:20 10° WSW 20:49:29 13° W 20:51:39 10° WNW visible
19 Oct 5.1 20:08:01 10° SSW 20:12:20 28° W 20:16:41 10° NW visible
20 Oct 6.7 06:38:55 10° ENE 06:40:25 11° E 06:41:54 10° ESE visible
20 Oct 3.6 19:30:23 10° S 19:35:23 61° W 19:40:26 10° NNW visible
21 Oct 3.0 18:53:39 10° SSE 18:58:38 62° ENE 19:03:40 10° N visible
21 Oct 5.9 20:34:59 10° SW 20:38:05 16° W 20:41:12 10° NW visible
22 Oct 6.0 07:02:31 10° NE 07:06:14 20° E 07:09:55 10° SE visible
22 Oct 4.7 19:56:23 10° SSW 20:01:00 35° W 20:05:38 10° NNW visible
23 Oct 3.2 19:19:02 10° S 19:24:06 77° WSW 19:29:12 10° NNW visible
24 Oct 3.2 18:42:33 10° SE 18:47:25 49° ENE 18:52:19 10° N visible
24 Oct 5.6 20:22:59 10° SW 20:26:42 20° W 20:30:27 10° NW visible
25 Oct 6.2 06:51:46 10° NE 06:54:51 16° E 06:57:54 10° SE visible
25 Oct 4.2 19:44:51 10° S 19:49:40 44° W 19:54:32 10° NNW visible
26 Oct 3.0 19:07:46 10° SSE 19:12:51 85° ENE 19:17:57 10° NNW visible
26 Oct 6.2 20:50:56 10° WSW 20:52:31 11° W 20:54:06 10° WNW visible
27 Oct 3.4 17:31:31 10° SE 17:36:12 40° ENE 17:40:55 10° N visible
27 Oct 5.2 19:11:10 10° SSW 19:15:20 25° W 19:19:32 10° NW visible
